Weather History for Linden, NJ

Change the Weather History Date:

Tuesday, January 1, 2013

  Actual Average (KEWR) Record (KEWR)
Temperature  
Mean Temperature 36 °F 32 °F  
Max Temperature 41 °F 40 °F 63 °F (1973)
Min Temperature 29 °F 26 °F 11 °F (1963)
Degree Days  
Heating Degree Days 30 32  
Month to date heating degree days 32  
Since 1 July heating degree days 1782  
Cooling Degree Days 0 0  
Month to date cooling degree days 0  
Year to date cooling degree days 0  
Moisture  
Dew Point 25 °F    
Average Humidity 59    
Maximum Humidity 73    
Minimum Humidity 46    
Precipitation  
Precipitation 0.00 in 0.12 in 1.73 in (2003)
Month to date precipitation 0.12  
Year to date precipitation 0.12  
Snow  
Snow 0.00 in 0.20 in 7.40 in (1971)
Month to date snowfall 0.2  
Since 1 July snowfall 6.0  
Snow Depth -    
Sea Level Pressure  
Sea Level Pressure 29.92 in    
Wind  
Wind Speed 8 mph (WNW)    
Max Wind Speed 16 mph    
Max Gust Speed 22 mph    
Visibility 10 miles    
Events      
T = Trace of Precipitation, MM = Missing Value Source: NWS Daily Summary

Daily Weather History Graph

Daily Weather History Graph

Search for Another Location

Airport:

Trip Planner

Search our weather history database for the weather conditions in past years. The results will help you decide how hot, cold, wet, or windy it might be!

Date:

Astronomy

Jan. 01, 2013 Rise Set
Actual Time 7:20 AM EST 4:40 PM EST
Civil Twilight 6:50 AM EST 5:11 PM EST
Nautical Twilight 6:15 AM EST 5:45 PM EST
Astronomical Twilight 5:42 AM EST 6:19 PM EST
Moon 9:10 PM EST (1/1) 9:30 AM EST (1/1)
Length of Visible Light 10h 21m
Length of Day
9h 20m
Waning Gibbous, 83% of the Moon is Illuminated
Jan 1
Waning Gibbous
Jan 4
Last Quarter
Jan 11
New
Jan 18
First Quarter
Jan 26
Full

Hourly Weather History & Observations

Time (EST) Temp. Windchill Dew Point Humidity Pressure Visibility Wind Dir Wind Speed Gust Speed Precip Events Conditions
12:15 AM 39.4 °F 35.2 °F 26.2 °F 59% 29.91 in 10.0 mi West 5.8 mph - N/A   Overcast
12:35 AM 39.4 °F 36.1 °F 26.4 °F 60% 29.89 in 10.0 mi West 4.6 mph - N/A   Overcast
12:55 AM 39.6 °F 36.3 °F 26.6 °F 60% 29.89 in 10.0 mi West 4.6 mph - N/A   Overcast
1:15 AM 39.4 °F 35.2 °F 26.6 °F 60% 29.90 in 10.0 mi West 5.8 mph - N/A   Overcast
1:35 AM 39.6 °F 37.4 °F 27.0 °F 61% 29.90 in 10.0 mi WSW 3.5 mph - N/A   Overcast
1:55 AM 39.6 °F 36.3 °F 27.3 °F 62% 29.89 in 10.0 mi West 4.6 mph - N/A   Overcast
2:15 AM 39.9 °F 35.8 °F 27.7 °F 62% 29.90 in 10.0 mi West 5.8 mph - N/A   Overcast
2:35 AM 40.3 °F 34.9 °F 28.4 °F 63% 29.90 in 10.0 mi West 8.1 mph - N/A   Overcast
2:55 AM 40.6 °F 34.8 °F 29.1 °F 64% 29.90 in 10.0 mi West 9.2 mph - N/A   Overcast
3:15 AM 41.0 °F 35.8 °F 29.3 °F 63% 29.91 in 10.0 mi West 8.1 mph - N/A   Overcast
3:35 AM 41.0 °F 35.8 °F 29.7 °F 64% 29.91 in 10.0 mi West 8.1 mph - N/A   Overcast
3:55 AM 41.4 °F 36.2 °F 29.8 °F 64% 29.91 in 10.0 mi West 8.1 mph - N/A   Overcast
4:15 AM 41.2 °F 35.5 °F 29.8 °F 64% 29.91 in 10.0 mi West 9.2 mph - N/A   Overcast
4:35 AM 41.0 °F 34.7 °F 29.8 °F 64% 29.91 in 10.0 mi West 10.4 mph - N/A   Overcast
4:55 AM 41.2 °F 34.1 °F 29.3 °F 63% 29.90 in 10.0 mi West 12.7 mph 16.1 mph N/A   Overcast
5:15 AM 41.0 °F 35.2 °F 29.7 °F 64% 29.89 in 10.0 mi West 9.2 mph - N/A   Overcast
5:35 AM 40.6 °F 36.0 °F 29.8 °F 65% 29.88 in 10.0 mi WSW 6.9 mph - N/A   Mostly Cloudy
5:55 AM 39.9 °F 35.1 °F 29.7 °F 67% 29.89 in 10.0 mi West 6.9 mph - N/A   Scattered Clouds
6:15 AM 40.1 °F 36.1 °F 29.3 °F 65% 29.89 in 10.0 mi West 5.8 mph - N/A   Scattered Clouds
6:35 AM 40.1 °F 35.3 °F 29.5 °F 66% 29.91 in 10.0 mi WSW 6.9 mph - N/A   Scattered Clouds
6:55 AM 40.1 °F 34.7 °F 29.5 °F 66% 29.91 in 10.0 mi WSW 8.1 mph - N/A   Overcast
7:15 AM 40.3 °F 34.9 °F 29.7 °F 66% 29.90 in 10.0 mi West 8.1 mph - N/A   Overcast
7:35 AM 40.3 °F 35.5 °F 29.3 °F 65% 29.92 in 10.0 mi WSW 6.9 mph - N/A   Overcast
7:55 AM 40.3 °F 34.4 °F 29.3 °F 65% 29.90 in 10.0 mi West 9.2 mph - N/A   Overcast
8:15 AM 40.3 °F 35.5 °F 29.5 °F 65% 29.91 in 10.0 mi West 6.9 mph 19.6 mph N/A   Overcast
8:35 AM 40.5 °F 35.1 °F 29.5 °F 65% 29.91 in 10.0 mi West 8.1 mph - N/A   Overcast
8:55 AM 40.6 °F 35.4 °F 29.7 °F 65% 29.90 in 10.0 mi West 8.1 mph - N/A   Mostly Cloudy
9:15 AM 41.0 °F 34.7 °F 29.7 °F 64% 29.91 in 10.0 mi West 10.4 mph - N/A   Mostly Cloudy
9:35 AM 41.0 °F 33.5 °F 29.5 °F 64% 29.91 in 10.0 mi West 13.8 mph 19.6 mph N/A   Mostly Cloudy
9:55 AM 41.0 °F 34.7 °F 29.5 °F 64% 29.92 in 10.0 mi West 10.4 mph 17.3 mph N/A   Scattered Clouds
10:15 AM 41.4 °F 35.2 °F 29.3 °F 62% 29.91 in 10.0 mi West 10.4 mph - N/A   Scattered Clouds
10:35 AM 41.5 °F 35.9 °F 29.3 °F 62% 29.91 in 10.0 mi West 9.2 mph 17.3 mph N/A   Clear
10:55 AM 41.5 °F 35.0 °F 29.3 °F 62% 29.91 in 10.0 mi West 11.5 mph 18.4 mph N/A   Clear
11:15 AM 41.9 °F 34.3 °F 29.1 °F 61% 29.90 in 10.0 mi West 15.0 mph - N/A   Scattered Clouds
11:35 AM 41.9 °F 35.4 °F 29.3 °F 61% 29.89 in 10.0 mi West 11.5 mph - N/A   Scattered Clouds
11:55 AM 41.9 °F 34.6 °F 29.5 °F 61% 29.88 in 10.0 mi West 13.8 mph 18.4 mph N/A   Mostly Cloudy
12:15 PM 41.9 °F 35.4 °F 29.7 °F 62% 29.87 in 10.0 mi West 11.5 mph 17.3 mph N/A   Overcast
12:35 PM 41.7 °F 34.4 °F 29.3 °F 61% 29.87 in 10.0 mi WNW 13.8 mph - N/A   Overcast
12:55 PM 41.4 °F 34.0 °F 29.3 °F 62% 29.87 in 10.0 mi WNW 13.8 mph 18.4 mph N/A   Overcast
1:15 PM 41.0 °F 32.8 °F 29.3 °F 63% 29.86 in 10.0 mi WNW 16.1 mph 21.9 mph N/A   Overcast
1:35 PM 40.8 °F 35.0 °F 29.7 °F 64% 29.86 in 10.0 mi NNW 9.2 mph 21.9 mph N/A   Overcast
1:55 PM 38.5 °F 30.7 °F 30.4 °F 73% 29.85 in 10.0 mi NW 12.7 mph 18.4 mph N/A   Overcast
2:15 PM 38.5 °F 32.7 °F 29.5 °F 70% 29.86 in 10.0 mi WNW 8.1 mph - N/A   Overcast
2:35 PM 39.0 °F 34.0 °F 28.9 °F 67% 29.86 in 10.0 mi West 6.9 mph - N/A   Overcast
2:55 PM 39.2 °F 33.6 °F 28.0 °F 64% 29.86 in 10.0 mi WNW 8.1 mph - N/A   Overcast
3:15 PM 39.4 °F 33.2 °F 27.3 °F 62% 29.87 in 10.0 mi WNW 9.2 mph 16.1 mph N/A   Overcast
3:35 PM 39.4 °F 33.2 °F 26.4 °F 60% 29.87 in 10.0 mi WNW 9.2 mph - N/A   Overcast
3:55 PM 39.2 °F 32.5 °F 25.7 °F 58% 29.89 in 10.0 mi West 10.4 mph - N/A   Overcast
4:15 PM 39.2 °F 34.2 °F 25.3 °F 58% 29.90 in 10.0 mi WNW 6.9 mph - N/A   Mostly Cloudy
4:35 PM 39.2 °F 34.2 °F 25.5 °F 58% 29.90 in 10.0 mi West 6.9 mph - N/A   Overcast
4:55 PM 39.2 °F 33.6 °F 24.4 °F 56% 29.89 in 10.0 mi WNW 8.1 mph - N/A   Overcast
5:15 PM 38.8 °F 33.8 °F 23.5 °F 54% 29.91 in 10.0 mi WNW 6.9 mph 19.6 mph N/A   Overcast
5:35 PM 37.9 °F 32.1 °F 21.6 °F 52% 29.92 in 10.0 mi NW 8.1 mph - N/A   Scattered Clouds
5:55 PM 37.4 °F 29.3 °F 21.2 °F 52% 29.92 in 10.0 mi NW 12.7 mph 18.4 mph N/A   Clear
6:15 PM 36.7 °F 27.6 °F 19.8 °F 50% 29.93 in 10.0 mi NW 15.0 mph - N/A   Clear
6:35 PM 36.1 °F 29.9 °F 18.5 °F 49% 29.95 in 10.0 mi NW 8.1 mph 16.1 mph N/A   Clear
6:55 PM 35.6 °F 29.9 °F 18.3 °F 50% 29.95 in 10.0 mi NW 6.9 mph - N/A   Clear
7:15 PM 35.4 °F 27.8 °F 17.1 °F 47% 29.97 in 10.0 mi NW 10.4 mph - N/A   Clear
7:35 PM 34.9 °F 27.1 °F 16.0 °F 46% 29.96 in 10.0 mi NNW 10.4 mph 17.3 mph N/A   Clear
7:55 PM 34.5 °F 27.9 °F 15.6 °F 46% 29.96 in 10.0 mi NW 8.1 mph - N/A   Clear
8:15 PM 34.0 °F 29.8 °F 16.9 °F 50% 29.98 in 10.0 mi WNW 4.6 mph - N/A   Clear
8:35 PM 33.8 °F 27.0 °F 16.0 °F 48% 29.97 in 10.0 mi NW 8.1 mph - N/A   Clear
8:55 PM 33.6 °F 26.8 °F 16.0 °F 48% 29.99 in 10.0 mi NNW 8.1 mph - N/A   Clear
9:15 PM 33.3 °F 27.9 °F 17.2 °F 52% 29.99 in 10.0 mi NW 5.8 mph - N/A   Clear
9:35 PM 32.2 °F 23.8 °F 15.8 °F 51% 29.99 in 10.0 mi NW 10.4 mph 17.3 mph N/A   Clear
9:55 PM 32.0 °F 24.2 °F 15.8 °F 51% 30.01 in 10.0 mi NW 9.2 mph - N/A   Clear
10:15 PM 31.8 °F 23.9 °F 15.6 °F 51% 30.01 in 10.0 mi NNW 9.2 mph 17.3 mph N/A   Clear
10:35 PM 30.9 °F 22.2 °F 14.5 °F 51% 30.02 in 10.0 mi NNW 10.4 mph - N/A   Clear
10:55 PM 30.6 °F 21.2 °F 14.5 °F 51% 30.02 in 10.0 mi NNW 11.5 mph 17.3 mph N/A   Clear
11:15 PM 30.2 °F 21.9 °F 14.2 °F 51% 30.03 in 10.0 mi NW 9.2 mph 16.1 mph N/A   Clear
11:55 PM 29.7 °F 22.0 °F 14.0 °F 52% 30.02 in 10.0 mi NW 8.1 mph - N/A   Clear